This is the latest recevied weather packets stored in our database for station/object E24QND-2. If no packets are shown the sender has not sent any weather packets the latest 10 day(s).
| Time | Temp. | Humidity | Pressure | Rain* | Wind** | Luminosity | Snow |
|---|---|---|---|---|---|---|---|
| 1777518890 | 30.56° C | 89% | - | - | - | 0 W/m² | - |
| 1777517666 | 30° C | 75% | - | - | - | 0 W/m² | - |
| 1777516441 | 28.89° C | 91% | - | - | - | 0 W/m² | - |
| 1777515217 | 29.44° C | 89% | - | - | - | 0 W/m² | - |
| 1777513992 | 28.33° C | 97% | - | - | - | 0 W/m² | - |
| 1777512767 | 27.22° C | 99% | - | - | - | 0 W/m² | - |
| 1777511543 | 26.67° C | 99% | - | - | - | 0 W/m² | - |
| 1777510318 | 26.11° C | 99% | - | - | - | 0 W/m² | - |
| 1777509094 | 26.11° C | 99% | - | - | - | 0 W/m² | - |
| 1777507869 | 26.11° C | 99% | - | - | - | 0 W/m² | - |
| 1777506618 | 25° C | 99% | - | - | - | 0 W/m² | - |
| 1777505369 | 25.56° C | 99% | - | - | - | 0 W/m² | - |
| 1777504119 | 25° C | 99% | - | - | - | 0 W/m² | - |
| 1777502869 | 25° C | 99% | - | - | - | 0 W/m² | - |
| 1777502366 | 25° C | 99% | - | - | - | 0 W/m² | - |
| 1777502311 | 25° C | 99% | - | - | - | 0 W/m² | - |
| 1777501086 | 25° C | 99% | - | - | - | 0 W/m² | - |
| 1777499837 | 25° C | 99% | - | - | - | 0 W/m² | - |
| 1777498587 | 25° C | 1% | - | - | - | 0 W/m² | - |
| 1777497337 | 25° C | 1% | - | - | - | 0 W/m² | - |
| 1777496088 | 25.56° C | 1% | - | - | - | 0 W/m² | - |
| 1777495167 | 24.44° C | 1% | - | - | - | 0 W/m² | - |
| 1777493917 | 25.56° C | 99% | - | - | - | 0 W/m² | - |
| 1777492667 | 24.44° C | 99% | - | - | - | 0 W/m² | - |
| 1777491611 | 25° C | 99% | - | - | - | 0 W/m² | - |
* Rain since midnight (hover to see other rain measurements)
** Current wind speed in m/s (hover to see current wind gust speed)